PWSweather.com
Personal Weather Stations
Station Observations
KB2SBX
Sugarloaf, Sugarloaf, PA 18249

SugarloafSugarloaf, PA 18249

Lat: 41.0126685, Lon: -76.1082041

Elevation: 1030

Station Type: WS-2080

http://sugarloafpaweather.webng.com/weather.shtml

Latest ConditionsUpdated 4:15:06 AM EDT Monday, Jul 28, 2014
Currently Today's Max Today's Min Today's Average
Temperature 64.2°F17.9°C 65.8°F18.8°C 64.2°F17.9°C 64.8°F18.2°C
Dew Point 63.3°F17.4°C 65.1°F18.4°C 63.3°F17.4°C 64.4°F18.0°C
Winds Calm Calm 1.0 mph NNW1.6 kmh NNW - 0.1 mph 0.2 kmh
Wind Gusts -- 2.0 mph3.2 kmh - -
Humidity 97% 99% 97% 99%
Pressure 29.55 in1000.7 mb 29.62 in1003.0 mb 29.55 in1000.7 mb -
Precipitation - 0.01 in0.3 mm - -
Hour Temp Dew Point Humidity Winds Wind Gusts Pressure Precip Precip Rate Daily Precip Total
04:15 AM 64.2°F17.9°C 63.3°F17.4°C 97% Calm Calm -- 29.55 in1000.7 mb 0.00 in0.0 mm 0.00 in/hr0.0 mm/hr 0.01 in0.3 mm
04:10 AM 64.4°F18.0°C 64.1°F17.8°C 99% Calm Calm -- 29.55 in1000.7 mb 0.00 in0.0 mm 0.00 in/hr0.0 mm/hr 0.01 in0.3 mm
04:05 AM 64.5°F18.1°C 64.2°F17.9°C 99% Calm Calm -- 29.56 in1001.0 mb 0.00 in0.0 mm 0.00 in/hr0.0 mm/hr 0.01 in0.3 mm
04:00 AM 64.5°F18.1°C 64.2°F17.9°C 99% Calm Calm 1.0 mph1.6 kmh 29.57 in1001.4 mb 0.00 in0.0 mm 0.00 in/hr0.0 mm/hr 0.01 in0.3 mm
03:55 AM 64.5°F18.1°C 64.2°F17.9°C 99% 1.0 mph SSW1.6 kmh SSW 2.0 mph3.2 kmh 29.57 in1001.4 mb 0.00 in0.0 mm 0.00 in/hr0.0 mm/hr 0.01 in0.3 mm
03:50 AM 64.5°F18.1°C 64.2°F17.9°C 99% Calm Calm 1.0 mph1.6 kmh 29.57 in1001.4 mb 0.00 in0.0 mm 0.00 in/hr0.0 mm/hr 0.01 in0.3 mm
03:45 AM 64.5°F18.1°C 64.2°F17.9°C 99% Calm Calm 2.0 mph3.2 kmh 29.57 in1001.4 mb 0.00 in0.0 mm 0.00 in/hr0.0 mm/hr 0.01 in0.3 mm
03:40 AM 64.5°F18.1°C 64.2°F17.9°C 99% Calm Calm -- 29.57 in1001.4 mb 0.00 in0.0 mm 0.00 in/hr0.0 mm/hr 0.01 in0.3 mm
03:35 AM 64.5°F18.1°C 64.2°F17.9°C 99% Calm Calm -- 29.57 in1001.4 mb 0.00 in0.0 mm 0.00 in/hr0.0 mm/hr 0.01 in0.3 mm
03:30 AM 64.5°F18.1°C 64.2°F17.9°C 99% Calm Calm -- 29.57 in1001.4 mb 0.00 in0.0 mm 0.00 in/hr0.0 mm/hr 0.01 in0.3 mm
03:25 AM 64.5°F18.1°C 64.2°F17.9°C 99% Calm Calm -- 29.57 in1001.4 mb 0.00 in0.0 mm 0.00 in/hr0.0 mm/hr 0.01 in0.3 mm
03:20 AM 64.5°F18.1°C 64.2°F17.9°C 99% Calm Calm -- 29.57 in1001.4 mb 0.00 in0.0 mm 0.00 in/hr0.0 mm/hr 0.01 in0.3 mm
03:15 AM 64.5°F18.1°C 64.2°F17.9°C 99% Calm Calm -- 29.57 in1001.4 mb 0.00 in0.0 mm 0.00 in/hr0.0 mm/hr 0.01 in0.3 mm
03:10 AM 64.5°F18.1°C 64.2°F17.9°C 99% Calm Calm 1.0 mph1.6 kmh 29.57 in1001.4 mb 0.00 in0.0 mm 0.00 in/hr0.0 mm/hr 0.01 in0.3 mm
03:05 AM 64.5°F18.1°C 64.2°F17.9°C 99% Calm Calm 1.0 mph1.6 kmh 29.57 in1001.4 mb 0.00 in0.0 mm 0.00 in/hr0.0 mm/hr 0.01 in0.3 mm
03:00 AM 64.5°F18.1°C 64.2°F17.9°C 99% Calm Calm -- 29.57 in1001.4 mb 0.00 in0.0 mm 0.00 in/hr0.0 mm/hr 0.01 in0.3 mm
02:55 AM 64.5°F18.1°C 64.2°F17.9°C 99% Calm Calm 1.0 mph1.6 kmh 29.57 in1001.4 mb 0.00 in0.0 mm 0.00 in/hr0.0 mm/hr 0.01 in0.3 mm
02:50 AM 64.5°F18.1°C 64.2°F17.9°C 99% Calm Calm -- 29.57 in1001.4 mb 0.00 in0.0 mm 0.00 in/hr0.0 mm/hr 0.01 in0.3 mm
02:45 AM 64.5°F18.1°C 64.2°F17.9°C 99% Calm Calm -- 29.56 in1001.0 mb 0.00 in0.0 mm 0.00 in/hr0.0 mm/hr 0.01 in0.3 mm
02:40 AM 64.5°F18.1°C 64.2°F17.9°C 99% Calm Calm -- 29.57 in1001.4 mb 0.00 in0.0 mm 0.00 in/hr0.0 mm/hr 0.01 in0.3 mm
02:35 AM 64.5°F18.1°C 64.2°F17.9°C 99% Calm Calm -- 29.57 in1001.4 mb 0.00 in0.0 mm 0.00 in/hr0.0 mm/hr 0.01 in0.3 mm
02:30 AM 64.5°F18.1°C 64.2°F17.9°C 99% Calm Calm -- 29.57 in1001.4 mb 0.00 in0.0 mm 0.00 in/hr0.0 mm/hr 0.01 in0.3 mm
02:25 AM 64.5°F18.1°C 64.2°F17.9°C 99% Calm Calm 1.0 mph1.6 kmh 29.56 in1001.0 mb 0.00 in0.0 mm 0.00 in/hr0.0 mm/hr 0.01 in0.3 mm
02:20 AM 64.5°F18.1°C 64.2°F17.9°C 99% Calm Calm -- 29.56 in1001.0 mb 0.00 in0.0 mm 0.00 in/hr0.0 mm/hr 0.01 in0.3 mm
02:15 AM 64.5°F18.1°C 64.2°F17.9°C 99% Calm Calm -- 29.57 in1001.4 mb 0.00 in0.0 mm 0.00 in/hr0.0 mm/hr 0.01 in0.3 mm
02:10 AM 64.5°F18.1°C 64.2°F17.9°C 99% Calm Calm 1.0 mph1.6 kmh 29.57 in1001.4 mb 0.00 in0.0 mm 0.00 in/hr0.0 mm/hr 0.01 in0.3 mm
02:05 AM 64.4°F18.0°C 64.1°F17.8°C 99% Calm Calm 1.0 mph1.6 kmh 29.57 in1001.4 mb 0.00 in0.0 mm 0.00 in/hr0.0 mm/hr 0.01 in0.3 mm
02:00 AM 64.4°F18.0°C 64.1°F17.8°C 99% 1.0 mph NNW1.6 kmh NNW 2.0 mph3.2 kmh 29.57 in1001.4 mb 0.00 in0.0 mm 0.00 in/hr0.0 mm/hr 0.01 in0.3 mm
01:55 AM 64.4°F18.0°C 64.1°F17.8°C 99% Calm Calm 1.0 mph1.6 kmh 29.58 in1001.7 mb 0.00 in0.0 mm 0.00 in/hr0.0 mm/hr 0.01 in0.3 mm
01:50 AM 64.5°F18.1°C 64.2°F17.9°C 99% Calm Calm 1.0 mph1.6 kmh 29.58 in1001.7 mb 0.00 in0.0 mm 0.00 in/hr0.0 mm/hr 0.01 in0.3 mm
01:45 AM 64.7°F18.2°C 64.4°F18.0°C 99% Calm Calm 2.0 mph3.2 kmh 29.58 in1001.7 mb 0.00 in0.0 mm 0.00 in/hr0.0 mm/hr 0.01 in0.3 mm
01:40 AM 64.7°F18.2°C 64.4°F18.0°C 99% Calm Calm 1.0 mph1.6 kmh 29.59 in1002.0 mb 0.00 in0.0 mm 0.00 in/hr0.0 mm/hr 0.01 in0.3 mm
01:35 AM 64.7°F18.2°C 64.4°F18.0°C 99% 1.0 mph SSW1.6 kmh SSW 2.0 mph3.2 kmh 29.59 in1002.0 mb 0.00 in0.0 mm 0.00 in/hr0.0 mm/hr 0.01 in0.3 mm
01:30 AM 64.9°F18.3°C 64.6°F18.1°C 99% Calm Calm 1.0 mph1.6 kmh 29.59 in1002.0 mb 0.00 in0.0 mm 0.00 in/hr0.0 mm/hr 0.01 in0.3 mm
01:25 AM 64.9°F18.3°C 64.6°F18.1°C 99% Calm Calm 2.0 mph3.2 kmh 29.60 in1002.4 mb 0.00 in0.0 mm 0.00 in/hr0.0 mm/hr 0.01 in0.3 mm
01:20 AM 64.9°F18.3°C 64.6°F18.1°C 99% Calm Calm 2.0 mph3.2 kmh 29.60 in1002.4 mb 0.00 in0.0 mm 0.00 in/hr0.0 mm/hr 0.01 in0.3 mm
01:15 AM 65.1°F18.4°C 64.8°F18.2°C 99% Calm Calm 1.0 mph1.6 kmh 29.60 in1002.4 mb 0.00 in0.0 mm 0.00 in/hr0.0 mm/hr 0.01 in0.3 mm
01:10 AM 65.1°F18.4°C 64.8°F18.2°C 99% Calm Calm 1.0 mph1.6 kmh 29.60 in1002.4 mb 0.00 in0.0 mm 0.00 in/hr0.0 mm/hr 0.01 in0.3 mm
01:05 AM 65.1°F18.4°C 64.8°F18.2°C 99% Calm Calm 1.0 mph1.6 kmh 29.59 in1002.0 mb 0.00 in0.0 mm 0.00 in/hr0.0 mm/hr 0.01 in0.3 mm
01:00 AM 65.1°F18.4°C 64.8°F18.2°C 99% Calm Calm 1.0 mph1.6 kmh 29.60 in1002.4 mb 0.01 in0.3 mm 0.00 in/hr0.0 mm/hr 0.01 in0.3 mm
12:55 AM 65.3°F18.5°C 65.0°F18.3°C 99% Calm Calm 1.0 mph1.6 kmh 29.61 in1002.7 mb 0.01 in0.3 mm 0.00 in/hr0.0 mm/hr 0.01 in0.3 mm
12:50 AM 65.3°F18.5°C 65.0°F18.3°C 99% Calm Calm -- 29.61 in1002.7 mb 0.01 in0.3 mm 0.00 in/hr0.0 mm/hr 0.01 in0.3 mm
12:45 AM 65.4°F18.6°C 65.1°F18.4°C 99% Calm Calm -- 29.61 in1002.7 mb 0.01 in0.3 mm 0.00 in/hr0.0 mm/hr 0.01 in0.3 mm
12:40 AM 65.4°F18.6°C 65.1°F18.4°C 99% Calm Calm -- 29.61 in1002.7 mb 0.01 in0.3 mm 0.00 in/hr0.0 mm/hr 0.01 in0.3 mm
12:35 AM 65.4°F18.6°C 64.8°F18.2°C 98% Calm Calm -- 29.62 in1003.0 mb 0.01 in0.3 mm 0.00 in/hr0.0 mm/hr 0.01 in0.3 mm
12:30 AM 65.4°F18.6°C 64.8°F18.2°C 98% Calm Calm 1.0 mph1.6 kmh 29.62 in1003.0 mb 0.01 in0.3 mm 0.00 in/hr0.0 mm/hr 0.01 in0.3 mm
12:25 AM 65.4°F18.6°C 64.8°F18.2°C 98% Calm Calm 1.0 mph1.6 kmh 29.62 in1003.0 mb 0.01 in0.3 mm 0.00 in/hr0.0 mm/hr 0.01 in0.3 mm
12:20 AM 65.6°F18.7°C 65.0°F18.3°C 98% Calm Calm 1.0 mph1.6 kmh 29.61 in1002.7 mb 0.01 in0.3 mm 0.00 in/hr0.0 mm/hr 0.01 in0.3 mm
12:15 AM 65.6°F18.7°C 65.0°F18.3°C 98% Calm Calm 2.0 mph3.2 kmh 29.62 in1003.0 mb 0.01 in0.3 mm 0.00 in/hr0.0 mm/hr 0.01 in0.3 mm
12:10 AM 65.6°F18.7°C 65.0°F18.3°C 98% Calm Calm 2.0 mph3.2 kmh 29.61 in1002.7 mb 0.01 in0.3 mm 0.00 in/hr0.0 mm/hr 0.01 in0.3 mm
12:05 AM 65.8°F18.8°C 64.9°F18.3°C 97% Calm Calm -- 29.62 in1003.0 mb 0.01 in0.3 mm 0.12 in/hr3.0 mm/hr 0.01 in0.3 mm
12:00 AM 65.8°F18.8°C 64.9°F18.3°C 97% Calm Calm -- 29.62 in1003.0 mb 0.00 in0.0 mm 0.00 in/hr0.0 mm/hr 0.17 in4.3 mm